AirNav   Pilot Hours Calculator
 
 1382 users online  

MU61 Belton Regional Medical Center Heliport
Belton, Missouri, USA

GOING TO BELTON?


FAA INFORMATION EFFECTIVE 31 DECEMBER 2020

Location

FAA Identifier: MU61
Lat/Long: 38-48-59.9300N 094-30-12.8900W
38-48.998833N 094-30.214833W
38.8166472,-94.5035806
(estimated)
Elevation: 1070 ft. / 326 m (estimated)
Variation: 05E (1980)
From city: 5 miles E of BELTON, MO
Time zone: UTC -6 (UTC -5 during Daylight Saving Time)
Zip code: 64012

Heliport Operations

Heliport use: Private use, MEDICAL.
Activation date: 10/1986
Control tower: no
ARTCC: KANSAS CITY CENTER
FSS: COLUMBIA FLIGHT SERVICE STATION
Attendance: UNATNDD
Wind indicator: yes
Segmented circle: no
Lights: FOR PERIMETER LGTS CALL 816-348-1200.

Heliport Communications

WX ASOS at LXT (11 nm NE): 124.175 (816-347-9807)
WX ASOS at OJC (11 nm W): 119.35 (913-780-6969)
WX AWOS-3PT at LRY (14 nm SE): 119.975 (816-380-5936)
WX ASOS at IXD (18 nm W): 135.325 (913-780-6987)
WX ASOS at MKC (19 nm N): PHONE 816-329-2843

Nearby radio navigation aids

VOR radial/distance  VOR name  Freq  Var
ANXr219/24.2NAPOLEON VORTAC114.0007E
MCIr154/30.1KANSAS CITY VORTAC113.2505E
BUMr352/32.7BUTLER VORTAC115.9007E

 
NDB name  Hdg/Dist  Freq  Var  ID
HERBB067/11.642004EPK .--. -.-

Heliport Services

Runway Information

Helipad H1

Dimensions: 40 x 40 ft. / 12 x 12 m
Surface: concrete
Runway edge lights: PERI
Latitude: 38-48.998833N
Longitude: 094-30.214833W
Elevation: 1070.0 ft.
Traffic pattern: leftleft

Heliport Ownership and Management from official FAA records

Ownership: Privately-owned
Owner: BELTON REGIONAL MEDICAL CENTER
17065 SOUTH 71 HWY
BELTON, MO 64012
Phone 816-348-1200
Manager: BERNIE SWANNER
17065 SOUTH 71 HWY
BELTON, MO 64012
Phone 816-348-1200

Additional Remarks

FOR CD CTC KANSAS CITY APCH AT 816-329-2710.

Instrument Procedures

There are no published instrument procedures at MU61.

Some nearby airports with instrument procedures:

KLXT - Lee's Summit Municipal Airport (11 nm NE)
KOJC - Johnson County Exec Airport (11 nm W)
KLRY - Lawrence Smith Memorial Airport (14 nm SE)
3GV - East Kansas City Airport (18 nm NE)
KIXD - New Century AirCenter Airport (18 nm W)
KMKC - Charles B Wheeler Downtown Airport (19 nm N)
 
Loc | Ops | Rwys | IFR | FBO | Links
Com | Nav | Svcs | Stats | Notes
Area around MU61 (Belton Regional Medical Center Heliport)
 
Road maps at: MapQuest Bing Google
 
Aerial photo
No photo
 
Sectional chart

 
Airport distance calculator
Flying to Belton Regional Medical Center Heliport? Find the distance to fly.

From to MU61

Sunrise and sunset
Times for 15-Jan-2021
 Local
(UTC-6)
 Zulu
(UTC)
Morning civil twilight07:0713:07
Sunrise07:3613:36
Sunset17:1923:19
Evening civil twilight17:4823:48

Current date and time
Zulu (UTC)  15-Jan-2021 17:36:00
Local (UTC-6)  15-Jan-2021 11:36:00
 
METAR
KOJC 
11nm W 
151714Z 30018G35KT 3/4SM -SN BR OVC013 M01/M02 A2960 RMK AO2 PK WND 32035/1709 P0000 T10111022
KLXT 
11nm NE 
151700Z AUTO 29019G32KT 1 1/4SM -SN BR OVC019 M01/M03 A2957 RMK AO2 PK WND 29032/1655 P0000 T10061028
KLRY 
14nm SE 
151715Z AUTO 31020G27KT 1 1/2SM OVC011 00/M01 A2963 RMK AO2
KIXD 
18nm W 
151719Z 30025G36KT 1SM -SN BKN010 OVC015 M01/M03 A2962 RMK AO2 PK WND 30036/1711 P0000 T10061033
KMKC 
19nm N 
151654Z 29019G32KT 1 1/4SM -SN OVC020 00/M03 A2957 RMK AO2 PK WND 28036/1618 SLP019 P0000 T00001028
TAF
KIXD 
18nm W 
151120Z 1512/1612 30023G36KT 6SM -SN OVC035 FM151400 30023G39KT 1 1/2SM -SN BLSN OVC025 FM151800 32024G42KT 1 1/2SM -SN BLSN OVC015 FM152200 32023G38KT 5SM -SHSN OVC015 FM160800 32013KT P6SM BKN020
KMKC 
19nm N 
151120Z 1512/1612 30019G34KT 6SM -SN OVC025 FM151400 30019G36KT 1 1/2SM -SN BLSN OVC025 FM152200 32023G38KT 5SM -SHSN OVC015 FM160800 32013KT P6SM BKN015
NOTAMs
Click for the latest NOTAMs
NOTAMs are issued by the DoD/FAA and will open in a separate window not controlled by AirNav.

 

 
 

Would you like to see your business listed on this page?

 If your business provides an interesting product or service to pilots, flight crews, aircraft, or users of the Belton Regional Medical Center Heliport, you should consider listing it here.  To start the listing process, click on the button below
 
Add a business
 

Other Pages about Belton Regional Medical Center Heliport

Update a link
 
Copyright © AirNav, LLC. All rights reserved. Privacy Policy  Contact